Flag for U.S.A. Weather past 2 weeks in Allentown, Pennsylvania, U.S.A.

Now
47 °F

Clear.


Feels Like: 45 °F
Forecast: 39 / 60 °F
Wind: 5 mph from North

Location: Lehigh Valley International Airport

Current Time: Apr 26, 2015 at 10:18:37 PM

Latest Report: Apr 26, 2015 at 9:51 PM


Visibility: 10 mi

Pressure: 29.73 "Hg

Humidity: 48%

Dew point: 28 °F

Location of AllentownLocation

Historic Weather in Allentown — Graph

°F

Allentown temperature yesterday

Maximum temperature yesterday: 58 °F (at 4:51 PM)
Minimum temperature yesterday: 30 °F (at 5:51 AM)
Average temperature yesterday: 46 °F

Past Weeks' High & Low Weather Summary

 TemperatureHumidityPressure
High80 °F (Apr 18, 3:51 PM)100% (Apr 18, 4:57 AM)30.46 "Hg (Apr 18, 4:57 AM)
Low30 °F (Apr 25, 5:51 AM)16% (Apr 15, 3:51 PM)29.52 "Hg (Apr 22, 1:51 PM)
Average53 °F53%29.99 "Hg
* Reported Apr 11 8:51 PM — Apr 26 8:51 PM, Allentown, Weather by CustomWeather, © 2015

Note: Actual official high and low records may vary slightly from our data, if they occured in-between our weather recording intervals... More about our weather records

Advertising

Allentown weather history for previous 24 hours

 ConditionsComfort  
Time TempWeatherWind HumidityBarometerVisibility
8:51 PM
Sun, Apr 26
50 °FSunny.10 mph41%29.72 "Hg10 mi
7:51 PM52 °FSunny.9 mph40%29.71 "Hg10 mi
6:51 PM57 °FSunny.12 mph33%29.69 "Hg10 mi
5:51 PM59 °FPartly sunny.13 mph32%29.68 "Hg10 mi
4:51 PM59 °FOvercast.8 mph35%29.67 "Hg10 mi
3:51 PM59 °FOvercast.10 mph33%29.67 "Hg10 mi
2:51 PM59 °FOvercast.No wind33%29.67 "Hg10 mi
1:51 PM59 °FScattered clouds.3 mph32%29.69 "Hg10 mi
12:51 PM58 °FScattered clouds.No wind36%29.70 "Hg10 mi
11:51 AM56 °FPartly sunny.No wind37%29.71 "Hg10 mi
10:51 AM55 °FSunny.No wind40%29.72 "Hg10 mi
9:51 AM52 °FSunny.7 mph47%29.72 "Hg10 mi
8:51 AM50 °FSunny.12 mph48%29.72 "Hg10 mi
7:51 AM44 °FSunny.No wind55%29.72 "Hg10 mi
6:51 AM38 °FClear.No wind65%29.70 "Hg10 mi
5:51 AM36 °FClear.No wind70%29.70 "Hg10 mi
4:51 AM37 °FClear.No wind67%29.69 "Hg10 mi
3:51 AM42 °FClear.3 mph53%29.69 "Hg10 mi
2:51 AM38 °FClear.3 mph65%29.69 "Hg10 mi
1:51 AM42 °FClear.No wind57%29.70 "Hg10 mi
12:51 AM44 °FClear.No wind53%29.70 "Hg10 mi
11:51 PM
Sat, Apr 25
47 °FClear.5 mph46%29.71 "Hg10 mi
10:51 PM46 °FClear.No wind46%29.70 "Hg10 mi
Weather by CustomWeather, © 2015

See weather overviewHow to use our weather pages